| time (UTC) | temp F | wind direction | speed MPH | gust MPH | rain 1hr in | rain 24hr in | rain mn in | humidity % | barometer mb |
| 20260510211025 | 64 | 172 | 8.0 | 15.0 | 0.00 | 0.00 | 0.00 | 54 | 1017.5 |
| 20260510210021 | 63 | 181 | 8.0 | 14.0 | 0.00 | 0.00 | 0.00 | 57 | 1017.5 |
| 20260510205017 | 61 | 174 | 6.0 | 10.0 | 0.00 | 0.00 | 0.00 | 60 | 1017.4 |
| 20260510204115 | 60 | 148 | 6.0 | 15.0 | 0.00 | 0.00 | 0.00 | 59 | 1017.2 |
| 20260510203152 | 57 | 103 | 5.0 | 10.0 | 0.00 | 0.00 | 0.00 | 66 | 1017.1 |
| 20260510202107 | 54 | 108 | 8.0 | 15.0 | 0.00 | 0.00 | 0.00 | 77 | 1016.7 |
| 20260510201125 | 50 | 135 | 9.0 | 13.0 | 0.00 | 0.00 | 0.00 | 80 | 1016.2 |
| 20260510195118 | 50 | 132 | 13.0 | 17.0 | 0.00 | 0.00 | 0.00 | 83 | 1015.7 |
| 20260510194054 | 49 | 115 | 13.0 | 17.0 | 0.00 | 0.00 | 0.00 | 85 | 1015.5 |
| 20260510193050 | 49 | 135 | 13.0 | 18.0 | 0.00 | 0.00 | 0.00 | 86 | 1015.4 |
| 20260510192127 | 49 | 108 | 14.0 | 20.0 | 0.00 | 0.00 | 0.00 | 87 | 1015.2 |
| 20260510191042 | 49 | 135 | 15.0 | 24.0 | 0.00 | 0.00 | 0.00 | 87 | 1015.1 |
| 20260510190039 | 49 | 135 | 16.0 | 23.0 | 0.00 | 0.00 | 0.00 | 88 | 1014.9 |
| 20260510185035 | 49 | 135 | 16.0 | 21.0 | 0.00 | 0.00 | 0.00 | 88 | 1014.7 |
| 20260510184032 | 49 | 131 | 16.0 | 21.0 | 0.00 | 0.00 | 0.00 | 89 | 1014.6 |
| 20260510183029 | 49 | 144 | 17.0 | 22.0 | 0.00 | 0.00 | 0.00 | 89 | 1014.3 |
| 20260510182047 | 50 | 130 | 16.0 | 20.0 | 0.00 | 0.00 | 0.00 | 90 | 1014.0 |
| 20260510181024 | 49 | 135 | 16.0 | 22.0 | 0.00 | 0.00 | 0.00 | 90 | 1013.8 |
| 20260510180020 | 49 | 135 | 15.0 | 26.0 | 0.00 | 0.00 | 0.00 | 90 | 1013.6 |
| 20260510175117 | 49 | 135 | 15.0 | 19.0 | 0.00 | 0.00 | 0.00 | 91 | 1013.4 |
| 20260510174114 | 50 | 119 | 15.0 | 21.0 | 0.00 | 0.00 | 0.00 | 91 | 1013.3 |
| 20260510173108 | 50 | 133 | 14.0 | 20.0 | 0.00 | 0.00 | 0.00 | 91 | 1013.1 |
| 20260510172127 | 50 | 135 | 13.0 | 18.0 | 0.00 | 0.00 | 0.00 | 91 | 1013.0 |
| 20260510171101 | 50 | 134 | 16.0 | 22.0 | 0.00 | 0.00 | 0.00 | 92 | 1012.9 |
| 20260510170059 | 50 | 135 | 16.0 | 27.0 | 0.00 | 0.00 | 0.00 | 92 | 1012.8 |
| 20260510165054 | 50 | 135 | 15.0 | 21.0 | 0.00 | 0.00 | 0.00 | 91 | 1012.6 |
| 20260510164051 | 50 | 135 | 11.0 | 16.0 | 0.00 | 0.00 | 0.00 | 92 | 1012.5 |
| 20260510163048 | 50 | 152 | 12.0 | 16.0 | 0.00 | 0.00 | 0.00 | 92 | 1012.4 |
| 20260510162044 | 50 | 135 | 12.0 | 16.0 | 0.00 | 0.00 | 0.00 | 92 | 1012.4 |
| 20260510161100 | 50 | 143 | 14.0 | 22.0 | 0.00 | 0.00 | 0.00 | 93 | 1012.3 |
| 20260510160038 | 51 | 169 | 15.0 | 22.0 | 0.00 | 0.00 | 0.00 | 93 | 1012.1 |
| 20260510155032 | 51 | 154 | 14.0 | 21.0 | 0.00 | 0.00 | 0.00 | 93 | 1011.9 |
| 20260510154030 | 51 | 169 | 15.0 | 20.0 | 0.00 | 0.00 | 0.00 | 93 | 1011.8 |
| 20260510153026 | 51 | 143 | 16.0 | 22.0 | 0.00 | 0.00 | 0.00 | 94 | 1011.5 |
| 20260510152023 | 51 | 155 | 15.0 | 21.0 | 0.00 | 0.00 | 0.00 | 94 | 1011.4 |
| 20260510151018 | 51 | 154 | 16.0 | 23.0 | 0.00 | 0.00 | 0.00 | 94 | 1011.3 |
| 20260510150115 | 51 | 164 | 12.0 | 15.0 | 0.00 | 0.00 | 0.00 | 94 | 1011.3 |
| 20260510145111 | 51 | 139 | 12.0 | 16.0 | 0.00 | 0.02 | 0.00 | 94 | 1011.3 |
| 20260510144152 | 52 | 135 | 14.0 | 18.0 | 0.00 | 0.02 | 0.00 | 93 | 1011.2 |
| 20260510143104 | 52 | 139 | 13.0 | 17.0 | 0.00 | 0.02 | 0.00 | 93 | 1011.1 |
| 20260510141057 | 52 | 135 | 14.0 | 21.0 | 0.00 | 0.02 | 0.00 | 93 | 1010.9 |
| 20260510140056 | 52 | 137 | 14.0 | 21.0 | 0.00 | 0.02 | 0.00 | 93 | 1010.7 |
| 20260510135050 | 52 | 139 | 14.0 | 17.0 | 0.00 | 0.02 | 0.00 | 93 | 1010.7 |
| 20260510134047 | 53 | 144 | 15.0 | 20.0 | 0.00 | 0.02 | 0.00 | 92 | 1010.5 |
| 20260510133043 | 53 | 167 | 14.0 | 17.0 | 0.00 | 0.02 | 0.00 | 92 | 1010.3 |
| 20260510132102 | 53 | 175 | 12.0 | 16.0 | 0.00 | 0.02 | 0.00 | 92 | 1010.2 |
| 20260510131036 | 53 | 144 | 10.0 | 14.0 | 0.00 | 0.02 | 0.00 | 92 | 1009.9 |
| 20260510130033 | 54 | 147 | 12.0 | 17.0 | 0.00 | 0.02 | 0.00 | 91 | 1009.7 |
| 20260510125050 | 54 | 168 | 11.0 | 15.0 | 0.00 | 0.02 | 0.00 | 91 | 1009.8 |
| 20260510124025 | 54 | 182 | 12.0 | 17.0 | 0.00 | 0.02 | 0.00 | 90 | 1009.7 |
| 20260510123027 | 54 | 160 | 12.0 | 17.0 | 0.00 | 0.02 | 0.00 | 90 | 1009.5 |
| 20260510122018 | 54 | 176 | 14.0 | 21.0 | 0.00 | 0.02 | 0.00 | 89 | 1009.4 |
| 20260510121115 | 54 | 172 | 13.0 | 18.0 | 0.00 | 0.02 | 0.00 | 87 | 1009.1 |
| 20260510120112 | 55 | 180 | 14.0 | 18.0 | 0.00 | 0.02 | 0.00 | 83 | 1008.9 |
| 20260510115108 | 55 | 176 | 14.0 | 18.0 | 0.00 | 0.02 | 0.02 | 83 | 1008.9 |
| 20260510114107 | 55 | 180 | 18.0 | 23.0 | 0.00 | 0.02 | 0.02 | 82 | 1008.8 |
| 20260510113102 | 55 | 184 | 16.0 | 21.0 | 0.00 | 0.02 | 0.02 | 81 | 1008.7 |
| 20260510112059 | 55 | 180 | 15.0 | 20.0 | 0.00 | 0.02 | 0.02 | 81 | 1008.6 |
| 20260510111057 | 55 | 206 | 18.0 | 24.0 | 0.00 | 0.02 | 0.02 | 82 | 1008.6 |
| 20260510110112 | 54 | 208 | 19.0 | 26.0 | 0.00 | 0.02 | 0.02 | 85 | 1008.7 |
| 20260510105048 | 54 | 194 | 16.0 | 21.0 | 0.00 | 0.02 | 0.02 | 87 | 1008.7 |
| 20260510104105 | 54 | 184 | 17.0 | 25.0 | 0.00 | 0.02 | 0.02 | 87 | 1008.5 |
| 20260510103042 | 54 | 180 | 14.0 | 17.0 | 0.00 | 0.02 | 0.02 | 86 | 1008.5 |
| 20260510102037 | 54 | 196 | 14.0 | 21.0 | 0.00 | 0.02 | 0.02 | 86 | 1008.5 |
| 20260510101034 | 53 | 184 | 16.0 | 21.0 | 0.00 | 0.02 | 0.02 | 86 | 1008.5 |
| 20260510100031 | 53 | 176 | 15.0 | 20.0 | 0.00 | 0.02 | 0.02 | 87 | 1008.3 |
| 20260510095029 | 54 | 184 | 16.0 | 22.0 | 0.00 | 0.02 | 0.02 | 89 | 1008.2 |
| 20260510094104 | 54 | 185 | 18.0 | 24.0 | 0.00 | 0.02 | 0.02 | 89 | 1008.1 |
| 20260510093022 | 54 | 215 | 18.0 | 23.0 | 0.00 | 0.02 | 0.02 | 92 | 1008.0 |
| 20260510092016 | 54 | 207 | 14.0 | 26.0 | 0.00 | 0.02 | 0.02 | 93 | 1007.9 |
| 20260510091114 | 54 | 195 | 14.0 | 19.0 | 0.00 | 0.02 | 0.02 | 94 | 1007.7 |
| 20260510090110 | 55 | 210 | 15.0 | 22.0 | 0.00 | 0.02 | 0.02 | 92 | 1007.4 |
| 20260510085107 | 55 | 208 | 15.0 | 23.0 | 0.00 | 0.02 | 0.02 | 91 | 1007.3 |
| 20260510084102 | 54 | 212 | 14.0 | 21.0 | 0.00 | 0.02 | 0.02 | 93 | 1007.2 |
| 20260510083059 | 55 | 233 | 15.0 | 21.0 | 0.00 | 0.02 | 0.02 | 92 | 1007.0 |
| 20260510082026 | 55 | 229 | 15.0 | 21.0 | 0.00 | 0.02 | 0.02 | 92 | 1006.8 |
| 20260510081044 | 55 | 183 | 16.0 | 26.0 | 0.00 | 0.02 | 0.02 | 92 | 1006.8 |
| 20260510080019 | 54 | 189 | 13.0 | 18.0 | 0.00 | 0.02 | 0.02 | 93 | 1006.7 |
| 20260510075115 | 54 | 192 | 13.0 | 18.0 | 0.00 | 0.02 | 0.02 | 95 | 1006.6 |
| 20260510074111 | 55 | 221 | 14.0 | 21.0 | 0.00 | 0.02 | 0.02 | 93 | 1006.3 |
| 20260510073108 | 55 | 196 | 12.0 | 18.0 | 0.00 | 0.02 | 0.02 | 92 | 1006.3 |
| 20260510072106 | 55 | 202 | 13.0 | 17.0 | 0.00 | 0.02 | 0.02 | 92 | 1006.3 |
| 20260510071101 | 55 | 180 | 11.0 | 14.0 | 0.00 | 0.02 | 0.02 | 92 | 1006.0 |
| 20260510070059 | 55 | 212 | 12.0 | 18.0 | 0.00 | 0.02 | 0.02 | 92 | 1005.9 |
| 20260510065055 | 56 | 203 | 13.0 | 19.0 | 0.00 | 0.02 | 0.02 | 91 | 1005.8 |
| 20260510064112 | 56 | 197 | 12.0 | 16.0 | 0.00 | 0.02 | 0.02 | 91 | 1005.7 |
| 20260510063047 | 56 | 184 | 14.0 | 17.0 | 0.00 | 0.02 | 0.02 | 90 | 1005.5 |
| 20260510062104 | 56 | 188 | 14.0 | 19.0 | 0.00 | 0.02 | 0.02 | 90 | 1005.3 |
| 20260510061040 | 56 | 241 | 9.0 | 11.0 | 0.00 | 0.02 | 0.02 | 89 | 1005.3 |
| 20260510060038 | 56 | 184 | 9.0 | 12.0 | 0.00 | 0.02 | 0.02 | 87 | 1005.2 |
| 20260510055032 | 57 | 211 | 10.0 | 14.0 | 0.00 | 0.02 | 0.02 | 86 | 1005.1 |
| 20260510054030 | 57 | 237 | 11.0 | 15.0 | 0.00 | 0.02 | 0.02 | 84 | 1004.9 |
| 20260510053048 | 57 | 250 | 9.0 | 15.0 | 0.00 | 0.02 | 0.02 | 83 | 1004.8 |
| 20260510052022 | 58 | 210 | 8.0 | 11.0 | 0.00 | 0.02 | 0.02 | 81 | 1004.6 |
| 20260510051020 | 58 | 200 | 9.0 | 12.0 | 0.00 | 0.02 | 0.02 | 80 | 1004.7 |
| 20260510050115 | 59 | 217 | 13.0 | 18.0 | 0.00 | 0.02 | 0.02 | 79 | 1004.6 |
| 20260510045114 | 61 | 218 | 16.0 | 23.0 | 0.00 | 0.02 | 0.02 | 80 | 1004.7 |
| 20260510044150 | 61 | 207 | 12.0 | 17.0 | 0.00 | 0.02 | 0.02 | 80 | 1004.5 |
| 20260510043107 | 62 | 222 | 10.0 | 15.0 | 0.00 | 0.02 | 0.02 | 81 | 1004.5 |
| 20260510042103 | 62 | 210 | 10.0 | 15.0 | 0.00 | 0.02 | 0.02 | 83 | 1004.6 |
| 20260510041059 | 61 | 216 | 12.0 | 16.0 | 0.00 | 0.02 | 0.02 | 85 | 1004.6 |
| 20260510040055 | 60 | 216 | 13.0 | 19.0 | 0.00 | 0.02 | 0.02 | 84 | 1004.6 |
| 20260510035113 | 59 | 224 | 14.0 | 22.0 | 0.00 | 0.02 | 0.02 | 83 | 1004.5 |
| 20260510034047 | 60 | 208 | 13.0 | 18.0 | 0.00 | 0.02 | 0.02 | 82 | 1004.5 |
| 20260510033104 | 60 | 209 | 16.0 | 26.0 | 0.00 | 0.02 | 0.02 | 80 | 1004.4 |
| 20260510032041 | 61 | 205 | 15.0 | 26.0 | 0.00 | 0.02 | 0.02 | 79 | 1004.3 |
| 20260510031059 | 61 | 213 | 14.0 | 23.0 | 0.00 | 0.02 | 0.02 | 77 | 1004.4 |
| 20260510030033 | 62 | 239 | 15.0 | 19.0 | 0.00 | 0.02 | 0.02 | 77 | 1004.4 |
| 20260510025111 | 62 | 230 | 17.0 | 24.0 | 0.00 | 0.02 | 0.02 | 74 | 1004.4 |
| 20260510024028 | 64 | 192 | 18.0 | 27.0 | 0.00 | 0.02 | 0.02 | 72 | 1004.2 |
| 20260510023045 | 64 | 206 | 20.0 | 28.0 | 0.00 | 0.02 | 0.02 | 73 | 1004.3 |
| 20260510022019 | 64 | 216 | 20.0 | 27.0 | 0.00 | 0.02 | 0.02 | 74 | 1004.2 |
| 20260510021017 | 62 | 232 | 19.0 | 25.0 | 0.00 | 0.02 | 0.02 | 78 | 1004.2 |
| 20260510020114 | 63 | 212 | 17.0 | 23.0 | 0.00 | 0.02 | 0.02 | 76 | 1004.1 |
| 20260510015109 | 62 | 203 | 16.0 | 23.0 | 0.00 | 0.02 | 0.02 | 79 | 1004.1 |
| 20260510014106 | 62 | 229 | 19.0 | 26.0 | 0.00 | 0.02 | 0.02 | 78 | 1004.2 |
| 20260510013103 | 62 | 228 | 16.0 | 26.0 | 0.00 | 0.02 | 0.02 | 78 | 1004.2 |
| 20260510012059 | 63 | 203 | 17.0 | 23.0 | 0.00 | 0.02 | 0.02 | 77 | 1004.1 |
| 20260510011054 | 63 | 207 | 16.0 | 25.0 | 0.00 | 0.02 | 0.02 | 79 | 1004.1 |
| 20260510010051 | 61 | 229 | 15.0 | 23.0 | 0.00 | 0.02 | 0.02 | 81 | 1004.1 |
| 20260510005047 | 61 | 207 | 17.0 | 23.0 | 0.00 | 0.02 | 0.02 | 82 | 1004.2 |
| 20260510004046 | 61 | 221 | 17.0 | 27.0 | 0.00 | 0.02 | 0.02 | 82 | 1004.2 |
| 20260510003042 | 62 | 216 | 15.0 | 27.0 | 0.00 | 0.02 | 0.02 | 81 | 1004.4 |
| 20260510002058 | 62 | 217 | 13.0 | 20.0 | 0.00 | 0.02 | 0.02 | 82 | 1004.2 |
| 20260510001033 | 61 | 232 | 12.0 | 16.0 | 0.00 | 0.02 | 0.02 | 81 | 1004.3 |
| 20260510000030 | 61 | 217 | 12.0 | 18.0 | 0.00 | 0.02 | 0.02 | 81 | 1004.4 |
| 20260509235048 | 62 | 205 | 11.0 | 16.0 | 0.00 | 0.02 | 0.02 | 81 | 1004.6 |
| 20260509234046 | 61 | 230 | 12.0 | 22.0 | 0.00 | 0.02 | 0.02 | 78 | 1004.6 |
| 20260509233020 | 61 | 251 | 14.0 | 21.0 | 0.00 | 0.02 | 0.02 | 77 | 1004.5 |
| 20260509232016 | 62 | 212 | 12.0 | 18.0 | 0.00 | 0.02 | 0.02 | 77 | 1004.5 |
| 20260509231113 | 63 | 236 | 13.0 | 21.0 | 0.00 | 0.02 | 0.02 | 79 | 1004.5 |
| 20260509230153 | 63 | 204 | 12.0 | 18.0 | 0.00 | 0.02 | 0.02 | 82 | 1004.7 |
| 20260509225108 | 60 | 226 | 9.0 | 15.0 | 0.00 | 0.02 | 0.02 | 83 | 1004.8 |
| 20260509223100 | 61 | 221 | 13.0 | 18.0 | 0.00 | 0.02 | 0.02 | 84 | 1004.7 |
| 20260509222118 | 62 | 222 | 14.0 | 20.0 | 0.00 | 0.04 | 0.02 | 90 | 1004.8 |
| 20260509221052 | 61 | 230 | 16.0 | 24.0 | 0.00 | 0.04 | 0.02 | 94 | 1004.7 |
| 20260509220048 | 59 | 243 | 13.0 | 21.0 | 0.00 | 0.04 | 0.02 | 95 | 1004.7 |
| 20260509215045 | 59 | 215 | 8.0 | 16.0 | 0.00 | 0.05 | 0.02 | 97 | 1004.8 |
| 20260509214041 | 60 | 213 | 9.0 | 13.0 | 0.00 | 0.05 | 0.02 | 99 | 1004.7 |
| 20260509213038 | 58 | 201 | 10.0 | 14.0 | 0.00 | 0.05 | 0.02 | 99 | 1004.8 |
| 20260509212034 | 58 | 220 | 11.0 | 17.0 | 0.00 | 0.05 | 0.02 | 99 | 1004.7 |